Location: Borgo
(42.3939°N, 9.2791°E)
Time: 21:39:34
(UTC+00:00)

ERS-2 - Pass Details

Date: 24 January 2021
Orbit: 492 x 497 km, 98.6° (Epoch: 03 March)

Event Time Altitude Azimuth Distance (km) Brightness Sun altitude
Exits shadow 17:50:15 - 15° (NNE) 1,826 4.7 -15.4°
Reaches altitude 10° 17:50:33 10° 15° (NNE) 1,696 4.5 -15.5°
Maximum altitude 17:54:12 84° 104° (ESE) 501 2.0 -16.1°
Drops below altitude 10° 17:57:49 10° 193° (SSW) 1,680 5.1 -16.8°
Sets 17:59:52 0° 194° (SSW) 2,557 6.1 -17.2°
